Regional Weather Roundup
Issued by NWS Wakefield, VA

Home | Current Version | Previous Version | Graphics & Text | Print | Product List | Glossary On
Versions: 1 2 3 4 5 6 7 8 9 10 11 12 13 14 15 16 17 18 19 20 21 22 23 24 25 26 27 28 29 30 31 32 33 34 35 36 37 38 39 40 41 42 43 44 45 46 47 48 49 50
000
ASUS41 KAKQ 291310
RWRAKQ

REGIONAL WEATHER ROUNDUP
NATIONAL WEATHER SERVICE WAKEFIELD VA
900 AM EDT FRI AUG 29 2014

Note: "fair" indicates few or no clouds below 12,000 feet with no
significant weather and/or obstructions to visibility. * = Denotes
station may not report precipitation (e.g., rain,snow,etc.),
thunder or fog.

VAZ042-051-052>054-056-291400-
NORTHERN VIRGINIA

CITY           SKY/WX    TMP DP  RH WIND       PRES   REMARKS
WASH NATIONAL  MOSUNNY   70  50  49 NE6       30.20R
DULLES         MOSUNNY   64  54  69 VRB3      30.21R
FORT BELVOIR   SUNNY     67  53  60 VRB3      30.21R
QUANTICO       SUNNY     68  55  63 N8        30.21R
FREDERICKSBRG* SUNNY     67  57  70 N3        30.18S
STAFFORD*      SUNNY     66  57  73 N3        30.24R
WARRENTON      SUNNY     67  60  78 N6        30.21R
CULPEPER*      SUNNY    N/A N/A N/A N6        30.21S
MANASSAS*      SUNNY     64  55  72 CALM      30.21R
LEESBURG*      SUNNY     64  54  68 NE5       30.22S
WINCHESTER     SUNNY     63  52  67 E3        30.22R
$$

VAZ048-049-060>072-079>083-291400-
CENTRAL AND SOUTH CENTRAL VIRGINIA...AND NORTH CENTRAL NORTH CAROLINA

CITY           SKY/WX    TMP DP  RH WIND       PRES   REMARKS
RICHMOND       PTSUNNY   70  59  68 NE8       30.17R
CHESTERFIELD*  CLOUDY   N/A N/A N/A NE5       30.18S
PETERSBURG*    MOSUNNY   71  58  63 NE7       30.17R
HANOVER        SUNNY     69  58  67 NE6       30.19S
TAPPAHANNOCK*  SUNNY     70  55  58 NE6       30.18S
CHARLOTTSVILLE SUNNY     67  54  63 NE7       30.21R
ORANGE*        SUNNY     64  54  68 NW6       30.22R
LOUISA*        SUNNY     66  57  72 NE5       30.19S
FARMVILLE*     CLOUDY    66  57  72 N7        30.17R
SOUTH HILL*    MOSUNNY   72  66  83 N5          N/A
ROANOKE RAPIDS MOSUNNY   70  68  94 NE8       30.13S
RALEIGH        CLOUDY    74  68  81 NE8       30.13R
$$

VAZ088>098-291400-
SOUTHEAST VIRGINIA

CITY           SKY/WX    TMP DP  RH WIND       PRES   REMARKS
NORFOLK        CLOUDY    76  64  66 NE9       30.13S
VIRGINIA BEACH PTSUNNY   77  63  61 E10       30.13R
NORFOLK NAVAL  PTSUNNY   76  65  68 NE14      30.15R
WEST POINT*    CLOUDY    73  61  66 N6        30.18R
NEWPORT NEWS   MOSUNNY   79  62  56 NE7       30.15R
LANGLEY AFB    PTSUNNY   76  66  71 E12       30.14R
FORT EUSTIS    SUNNY     76  59  54 E9        30.14R
WILLIAMSBURG*  PTSUNNY   75  64  69 NE5       30.16S
FRANKLIN*      SUNNY     75  68  78 NE6       30.14R
WAKEFIELD      PTSUNNY   75  63  66 NE5       30.15R
$$

VAZ020-022-025-037-045-291400-
WESTERN AND SOUTHWEST VIRGINIA

CITY           SKY/WX    TMP DP  RH WIND       PRES   REMARKS
STAUNTON*      SUNNY     64  55  72 CALM      30.24R
HOT SPRINGS VA SUNNY     59  50  72 SE6       30.29R
LYNCHBURG      MOSUNNY   67  54  63 NE10      30.21R
DANVILLE       PTSUNNY   72  61  68 NE9       30.17R
MARTINSVILLE   CLOUDY    70  60  70 NE5       30.21S
ROANOKE        PTSUNNY   69  53  56 VRB3      30.23R
BLACKSBURG     MOSUNNY   66  57  72 E5        30.25S
DUBLIN*        PTSUNNY   67  59  75 E3        30.25R
MARION*        CLOUDY   N/A N/A N/A E6        30.26R
HILLSVILLE*    CLOUDY    64  59  82 E7        30.24R
RICHLANDS*     SUNNY     73  66  77 SE5       30.19S
WISE*          SUNNY     73  68  83 S6        30.19F
ABINGDON*      SUNNY     73  66  79 E12       30.17R
$$

MDZ021>025-VAZ099-100-291400-
SOUTHERN MARYLAND AND THE DELMARVA PENINSULA

CITY           SKY/WX    TMP DP  RH WIND       PRES   REMARKS
PATUXENT RIVER MOSUNNY   69  53  56 NE9       30.18S
BAY BRIDGE APT   N/A     68  50  52 NE7       30.19S
LEONARDTOWN    SUNNY     68  52  56 NE6       30.19S
DOVER          SUNNY     66  57  73 N10       30.16S
GEORGETOWN     SUNNY     67  55  65 VRB6      30.18S
EASTON         SUNNY     66  55  68 NE5       30.21F
CAMBRIDGE      SUNNY     68  54  60 N7        30.18R
SALISBURY      SUNNY     69  56  62 N6        30.17R
OCEAN CITY     SUNNY     71  59  65 NE6       30.16R
WALLOPS ISLAND MOSUNNY   71  57  61 NE7       30.17R
ACCOMACK*      NOT AVBL
$$

NCZ012>017-030>032-291400-
EASTERN NORTH CAROLINA

CITY           SKY/WX    TMP DP  RH WIND       PRES   REMARKS
ELIZABETH CITY PTSUNNY   76  69  79 NE9       30.12R
AHOSKIE*       PTSUNNY   70  68  95 CALM      30.13R
EDENTON*       PTSUNNY   75  72  90 E6        30.11R
CURRITUCK*     PTSUNNY   76  64  64 NE10      30.13S
KILL DEVIL HLS CLOUDY    75  70  84 E6        30.10R
MANTEO         CLOUDY    75  70  84 NE12      30.11R
CAPE HATTERAS  NOT AVBL
GOLDSBORO      PTSUNNY   75  73  94 N5        30.09S
WASHINGTON     CLOUDY    73  71  93 N3        30.11R
GREENVILLE     CLOUDY    77  72  83 NE7       30.12R
NEW BERN       CLOUDY    78  69  73 SW3       30.11R
WILMINGTON     SUNNY     79  70  74 W6        30.10R
$$

VAZ048-291400-
ELSEWHERE

CITY           SKY/WX    TMP DP  RH WIND       PRES   REMARKS
HARRISBURG PA  MOSUNNY   63  54  72 NW5       30.21R
BALTIMORE      PTSUNNY   68  51  54 NE8       30.19S
ANNAPOLIS      SUNNY     69  54  58 NE8       30.19R
ANDREWS AFB    SUNNY     66  53  62 NE6       30.20R
WILMINGTON DE  MOSUNNY   66  52  60 N6        30.20R
PHILADELPHIA   PTSUNNY   67  51  56 N7        30.19R
WILDWOOD NJ*   SUNNY     64  52  63 N9        30.18S
ATLANTIC CITY  MOSUNNY   63  54  72 N8        30.17R
HENDERSON NC   CLOUDY    70  65  83 N3        30.16R
GREENSBORO     CLOUDY    71  63  75 NE13      30.16R
ROCKY MOUNT    SUNNY     76  69  79 NE7       30.12R
FAYETTEVILLE   SUNNY     78  65  63 W5        30.10R
CHARLOTTE      MOSUNNY   77  63  61 N3        30.12R
$$

VAZ100-291400-
MARINE

STATION/POSITION TIME  TEMP    WIND        PRES    WAVE   SWELL
                       AIR SEA DIR/SP/G            HT/PER HT/PER
                 (UTC) (F)     (DEG/KT/KT) (MB)    (FT/S) (FT/S)
44066 TX TWR #4  1300   69 71   30/ 12/ 14 1020.4R   5/11   3/11
CAPE MAY NJ      1300   67 78   10/  4/ 10 1020.8R
LEWES DE         1300   67 74   20/  8/  9 1021.2R
15NM E FENWICK I 1300   69 73              1021.0R   3/10
OCEAN-CITY-INLET 1300   68 75   10/  9/ 12 1020.8S
WACHAPREAGUE VA  1300   71 78   20/  7/ 10 1021.2R
THOMAS POINT MD  1300   66 77   40/  9/ 10 1023.2R
GOOSES REEF MD   1300   68      80/ 10/ 12 1022.4S
COVE POINT MD    1300   67      60/  7/ 10 1021.9R
SOLOMONS ISLAND  1300      80                N/A
BISHOPS HEAD MD  1300   67 75   30/  9/ 14 1021.2S
PINEY POINT MD   1300           60/  6/  8   N/A
POTOMAC MD       1300   70      50/ 12/ 14 1021.0S
CAMBRIDGE MD     1300   64 78   20/  6/  8 1021.6R
LEWISETTA VA     1300   70 78   50/  7/ 10 1021.4R
RAPPAHANNOCK LGT 1300           40/ 12/ 14 1021.7R
STINGRAY PT      1300   73      60/ 14/ 16   N/A
YORK RVR RNG VA  1300   73      70/ 13/ 14 1020.5R
YORKTOWN VA      1300   74 79   60/ 11/ 13 1020.7R
JAMESTOWN VA     1300   72      70/  6/ 10   N/A
DOMINION TERM VA 1300   75      30/  5/  9 1020.7R
KIPTOPEKE VA     1300      80   60/  7/  8   N/A
CHES BAY BRIDGE  1300   74 78   40/ 12/ 15 1020.0R
CAPE HENRY VA    1300   75      60/ 11/ 12 1019.3R
CHESAPEAKE LGHT  1200   74      60/ 12/ 13 1020.9R
WILLOUBY STN VA  1300   74      60/ 12/ 13 1019.4R
S CRANEY ISL VA  1300           40/  9/ 11 1020.1S
CAPE HENRY BUOY  1300      77                N/A     3/ 9
1ST LANDING BUOY 1300   76      60/ 12/ 14 1020.0S
CAPE CHARLES BUO 1300      77                N/A     3/ 9   2/ 9
OFFSHORE WE BUOY 1300      75                N/A     4/ 8   3/ 8
64NM E OF VA BCH 1300   76 75   40/ 10/ 10 1019.7R   4/ 9   3/ 9
DUCK PIER NC     1300   76 78   50/ 16/ 17 1019.1R
44056 DUCK FRF   1300                        N/A     3/11   2/11
OREGON INLET NC  1300   76 79   40/ 12/ 15 1019.2R
HATTERAS NC      1300   80 80  290/  7/  7 1019.4R
DIAMOND SHLS NC  1300   80     280/  6/  8 1019.0R   4/10   3/10
CAPE LOOKOUT NC  1200   80     270/  9/ 11 1018.9R
$$



USA.gov is the U.S. government's official web portal to all federal, state and local government web resources and services.